Year,Month,Day,Hour,Minute,Value (Times are PST for temperature in C)
2019,04,27,00,00,9.30
2019,04,27,00,01,9.30
2019,04,27,00,02,9.30
2019,04,27,00,03,9.20
2019,04,27,00,04,9.20
2019,04,27,00,05,9.20
2019,04,27,00,06,9.20
2019,04,27,00,07,9.20
2019,04,27,00,08,9.20
2019,04,27,00,09,9.20
2019,04,27,00,10,9.20
2019,04,27,00,11,9.20
2019,04,27,00,12,9.20
2019,04,27,00,13,9.20
2019,04,27,00,14,9.20
2019,04,27,00,15,9.20
2019,04,27,00,16,9.30
2019,04,27,00,17,9.30
2019,04,27,00,18,9.20
2019,04,27,00,19,9.20
2019,04,27,00,20,9.20
2019,04,27,00,21,9.20
2019,04,27,00,22,9.20
2019,04,27,00,23,9.20
2019,04,27,00,24,9.20
2019,04,27,00,25,9.20
2019,04,27,00,26,9.20
2019,04,27,00,27,9.10
2019,04,27,00,28,9.10
2019,04,27,00,29,9.10
2019,04,27,00,30,9.10
2019,04,27,00,31,9.10
2019,04,27,00,32,9.10
2019,04,27,00,33,9.10
2019,04,27,00,34,9.10
2019,04,27,00,35,9.10
2019,04,27,00,36,9.10
2019,04,27,00,37,9.10
2019,04,27,00,38,9.10
2019,04,27,00,39,9.10
2019,04,27,00,40,9.10
2019,04,27,00,41,9.10
2019,04,27,00,42,9.10
2019,04,27,00,43,9.10
2019,04,27,00,44,9.00
2019,04,27,00,45,9.00
2019,04,27,00,46,9.00
2019,04,27,00,47,9.00
2019,04,27,00,48,9.00
2019,04,27,00,49,9.00
2019,04,27,00,50,9.00
2019,04,27,00,51,9.00
2019,04,27,00,52,9.00
2019,04,27,00,53,9.00
2019,04,27,00,54,9.00
2019,04,27,00,55,8.90
2019,04,27,00,56,8.90
2019,04,27,00,57,8.90
2019,04,27,00,58,8.90
2019,04,27,00,59,8.90
2019,04,27,01,00,8.90
2019,04,27,01,01,8.90
2019,04,27,01,02,8.80
2019,04,27,01,03,8.80
2019,04,27,01,04,8.80
2019,04,27,01,05,8.80
2019,04,27,01,06,8.80
2019,04,27,01,07,8.70
2019,04,27,01,08,8.70
2019,04,27,01,09,8.70
2019,04,27,01,10,8.70
2019,04,27,01,11,8.70
2019,04,27,01,12,8.60
2019,04,27,01,13,8.60
2019,04,27,01,14,8.60
2019,04,27,01,15,8.60
2019,04,27,01,16,8.60
2019,04,27,01,17,8.60
2019,04,27,01,18,8.60
2019,04,27,01,19,8.60
2019,04,27,01,20,8.60
2019,04,27,01,21,8.60
2019,04,27,01,22,8.60
2019,04,27,01,23,8.60
2019,04,27,01,24,8.60
2019,04,27,01,25,8.60
2019,04,27,01,26,8.60
2019,04,27,01,27,8.60
2019,04,27,01,28,8.60
2019,04,27,01,29,8.60
2019,04,27,01,30,8.60
2019,04,27,01,31,8.60
2019,04,27,01,32,8.70
2019,04,27,01,33,8.70
2019,04,27,01,34,8.70
2019,04,27,01,35,8.70
2019,04,27,01,36,8.70
2019,04,27,01,37,8.70
2019,04,27,01,38,8.70
2019,04,27,01,39,8.70
2019,04,27,01,40,8.70
2019,04,27,01,41,8.60
2019,04,27,01,42,8.70
2019,04,27,01,43,8.70
2019,04,27,01,44,8.70
2019,04,27,01,45,8.70
2019,04,27,01,46,8.60
2019,04,27,01,47,8.60
2019,04,27,01,48,8.60
2019,04,27,01,49,8.60
2019,04,27,01,50,8.60
2019,04,27,01,51,8.60
2019,04,27,01,52,8.60
2019,04,27,01,53,8.60
2019,04,27,01,54,8.60
2019,04,27,01,55,8.60
2019,04,27,01,56,8.60
2019,04,27,01,57,8.50
2019,04,27,01,58,8.50
2019,04,27,01,59,8.50
2019,04,27,02,00,8.40
2019,04,27,02,01,8.40
2019,04,27,02,02,8.40
2019,04,27,02,03,8.40
2019,04,27,02,04,8.40
2019,04,27,02,05,8.40
2019,04,27,02,06,8.40
2019,04,27,02,07,8.40
2019,04,27,02,08,8.40
2019,04,27,02,09,8.40
2019,04,27,02,10,8.40
2019,04,27,02,11,8.40
2019,04,27,02,12,8.40
2019,04,27,02,13,8.40
2019,04,27,02,14,8.30
2019,04,27,02,15,8.30
2019,04,27,02,16,8.30
2019,04,27,02,17,8.30
2019,04,27,02,18,8.30
2019,04,27,02,19,8.20
2019,04,27,02,20,8.20
2019,04,27,02,21,8.20
2019,04,27,02,22,8.20
2019,04,27,02,23,8.10
2019,04,27,02,24,8.10
2019,04,27,02,25,8.00
2019,04,27,02,26,8.00
2019,04,27,02,27,8.00
2019,04,27,02,28,7.90
2019,04,27,02,29,7.90
2019,04,27,02,30,7.90
2019,04,27,02,31,7.80
2019,04,27,02,32,7.80
2019,04,27,02,33,7.80
2019,04,27,02,34,7.80
2019,04,27,02,35,7.70
2019,04,27,02,36,7.70
2019,04,27,02,37,7.70
2019,04,27,02,38,7.70
2019,04,27,02,39,7.70
2019,04,27,02,40,7.70
2019,04,27,02,41,7.70
2019,04,27,02,42,7.70
2019,04,27,02,43,7.70
2019,04,27,02,44,7.70
2019,04,27,02,45,7.70
2019,04,27,02,46,7.60
2019,04,27,02,47,7.60
2019,04,27,02,48,7.60
2019,04,27,02,49,7.60
2019,04,27,02,50,7.60
2019,04,27,02,51,7.60
2019,04,27,02,52,7.60
2019,04,27,02,53,7.60
2019,04,27,02,54,7.60
2019,04,27,02,55,7.50
2019,04,27,02,56,7.50
2019,04,27,02,57,7.60
2019,04,27,02,58,7.60
2019,04,27,02,59,7.60
2019,04,27,03,00,7.60
2019,04,27,03,01,7.60
2019,04,27,03,02,7.70
2019,04,27,03,03,7.70
2019,04,27,03,04,7.70
2019,04,27,03,05,7.70
2019,04,27,03,06,7.70
2019,04,27,03,07,7.70
2019,04,27,03,08,7.80
2019,04,27,03,09,7.80
2019,04,27,03,10,7.80
2019,04,27,03,11,7.80
2019,04,27,03,12,7.80
2019,04,27,03,13,7.80
2019,04,27,03,14,7.80
2019,04,27,03,15,7.70
2019,04,27,03,16,7.70
2019,04,27,03,17,7.70
2019,04,27,03,18,7.70
2019,04,27,03,19,7.70
2019,04,27,03,20,7.70
2019,04,27,03,21,7.60
2019,04,27,03,22,7.60
2019,04,27,03,23,7.60
2019,04,27,03,24,7.60
2019,04,27,03,25,7.50
2019,04,27,03,26,7.50
2019,04,27,03,27,7.50
2019,04,27,03,28,7.40
2019,04,27,03,29,7.40
2019,04,27,03,30,7.40
2019,04,27,03,31,7.40
2019,04,27,03,32,7.30
2019,04,27,03,33,7.30
2019,04,27,03,34,7.40
2019,04,27,03,35,7.40
2019,04,27,03,36,7.30
2019,04,27,03,37,7.30
2019,04,27,03,38,7.30
2019,04,27,03,39,7.30
2019,04,27,03,40,7.30
2019,04,27,03,41,7.30
2019,04,27,03,42,7.30
2019,04,27,03,43,7.30
2019,04,27,03,44,7.30
2019,04,27,03,45,7.30
2019,04,27,03,46,7.20
2019,04,27,03,47,7.20
2019,04,27,03,48,7.20
2019,04,27,03,49,7.20
2019,04,27,03,50,7.20
2019,04,27,03,51,7.10
2019,04,27,03,52,7.10
2019,04,27,03,53,7.10
2019,04,27,03,54,7.10
2019,04,27,03,55,7.00
2019,04,27,03,56,7.00
2019,04,27,03,57,6.90
2019,04,27,03,58,6.90
2019,04,27,03,59,6.90
2019,04,27,04,00,6.90
2019,04,27,04,01,6.80
2019,04,27,04,02,6.80
2019,04,27,04,03,6.80
2019,04,27,04,04,6.80
2019,04,27,04,05,6.80
2019,04,27,04,06,6.70
2019,04,27,04,07,6.70
2019,04,27,04,08,6.70
2019,04,27,04,09,6.70
2019,04,27,04,10,6.70
2019,04,27,04,11,6.70
2019,04,27,04,12,6.70
2019,04,27,04,13,6.70
2019,04,27,04,14,6.70
2019,04,27,04,15,6.60
2019,04,27,04,16,6.60
2019,04,27,04,17,6.60
2019,04,27,04,18,6.60
2019,04,27,04,19,6.50
2019,04,27,04,20,6.50
2019,04,27,04,21,6.50
2019,04,27,04,22,6.50
2019,04,27,04,23,6.40
2019,04,27,04,24,6.40
2019,04,27,04,25,6.40
2019,04,27,04,26,6.40
2019,04,27,04,27,6.40
2019,04,27,04,28,6.30
2019,04,27,04,29,6.30
2019,04,27,04,30,6.30
2019,04,27,04,31,6.30
2019,04,27,04,32,6.30
2019,04,27,04,33,6.30
2019,04,27,04,34,6.30
2019,04,27,04,35,6.30
2019,04,27,04,36,6.20
2019,04,27,04,37,6.20
2019,04,27,04,38,6.20
2019,04,27,04,39,6.20
2019,04,27,04,40,6.20
2019,04,27,04,41,6.20
2019,04,27,04,42,6.20
2019,04,27,04,43,6.20
2019,04,27,04,44,6.20
2019,04,27,04,45,6.10
2019,04,27,04,46,6.10
2019,04,27,04,47,6.10
2019,04,27,04,48,6.10
2019,04,27,04,49,6.10
2019,04,27,04,50,6.10
2019,04,27,04,51,6.00
2019,04,27,04,52,6.00
2019,04,27,04,53,6.10
2019,04,27,04,54,6.10
2019,04,27,04,55,6.10
2019,04,27,04,56,6.10
2019,04,27,04,57,6.10
2019,04,27,04,58,6.10
2019,04,27,04,59,6.10
2019,04,27,05,00,6.10
2019,04,27,05,01,6.00
2019,04,27,05,02,6.00
2019,04,27,05,03,6.00
2019,04,27,05,04,6.00
2019,04,27,05,05,6.00
2019,04,27,05,06,5.90
2019,04,27,05,07,5.90
2019,04,27,05,08,5.90
2019,04,27,05,09,5.80
2019,04,27,05,10,5.80
2019,04,27,05,11,5.80
2019,04,27,05,12,5.80
2019,04,27,05,13,5.80
2019,04,27,05,14,5.70
2019,04,27,05,15,5.70
2019,04,27,05,16,5.70
2019,04,27,05,17,5.70
2019,04,27,05,18,5.70
2019,04,27,05,19,5.70
2019,04,27,05,20,5.70
2019,04,27,05,21,5.60
2019,04,27,05,22,5.60
2019,04,27,05,23,5.60
2019,04,27,05,24,5.60
2019,04,27,05,25,5.60
2019,04,27,05,26,5.60
2019,04,27,05,27,5.60
2019,04,27,05,28,5.50
2019,04,27,05,29,5.60
2019,04,27,05,30,5.50
2019,04,27,05,31,5.50
2019,04,27,05,32,5.40
2019,04,27,05,33,5.30
2019,04,27,05,34,5.30
2019,04,27,05,35,5.30
2019,04,27,05,36,5.30
2019,04,27,05,37,5.30
2019,04,27,05,38,5.30
2019,04,27,05,39,5.20
2019,04,27,05,40,5.20
2019,04,27,05,41,5.20
2019,04,27,05,42,5.20
2019,04,27,05,43,5.20
2019,04,27,05,44,5.20
2019,04,27,05,45,5.10
2019,04,27,05,46,5.10
2019,04,27,05,47,5.10
2019,04,27,05,48,5.00
2019,04,27,05,49,5.00
2019,04,27,05,50,5.00
2019,04,27,05,51,5.00
2019,04,27,05,52,5.00
2019,04,27,05,53,5.00
2019,04,27,05,54,5.00
2019,04,27,05,55,5.00
2019,04,27,05,56,5.00
2019,04,27,05,57,5.00
2019,04,27,05,58,5.00
2019,04,27,05,59,5.00
2019,04,27,06,00,5.00
2019,04,27,06,01,5.00
2019,04,27,06,02,4.90
2019,04,27,06,03,4.90
2019,04,27,06,04,4.90
2019,04,27,06,05,4.90
2019,04,27,06,06,4.80
2019,04,27,06,07,4.80
2019,04,27,06,08,4.80
2019,04,27,06,09,4.80
2019,04,27,06,10,4.70
2019,04,27,06,11,4.70
2019,04,27,06,12,4.70
2019,04,27,06,13,4.60
2019,04,27,06,14,4.60
2019,04,27,06,15,4.60
2019,04,27,06,16,4.60
2019,04,27,06,17,4.60
2019,04,27,06,18,4.50
2019,04,27,06,19,4.50
2019,04,27,06,20,4.50
2019,04,27,06,21,4.50
2019,04,27,06,22,4.50
2019,04,27,06,23,4.50
2019,04,27,06,24,4.50
2019,04,27,06,25,4.50
2019,04,27,06,26,4.50
2019,04,27,06,27,4.60
2019,04,27,06,28,4.60
2019,04,27,06,29,4.60
2019,04,27,06,30,4.60
2019,04,27,06,31,4.60
2019,04,27,06,32,4.70
2019,04,27,06,33,4.70
2019,04,27,06,34,4.70
2019,04,27,06,35,4.70
2019,04,27,06,36,4.80
2019,04,27,06,37,4.80
2019,04,27,06,38,4.80
2019,04,27,06,39,4.90
2019,04,27,06,40,4.90
2019,04,27,06,41,4.80
2019,04,27,06,42,4.80
2019,04,27,06,43,4.90
2019,04,27,06,44,4.90
2019,04,27,06,45,4.90
2019,04,27,06,46,5.00
2019,04,27,06,47,5.00
2019,04,27,06,48,5.00
2019,04,27,06,49,5.00
2019,04,27,06,50,5.00
2019,04,27,06,51,5.00
2019,04,27,06,52,5.00
2019,04,27,06,53,5.00
2019,04,27,06,54,5.00
2019,04,27,06,55,5.00
2019,04,27,06,56,5.00
2019,04,27,06,57,5.00
2019,04,27,06,58,5.10
2019,04,27,06,59,5.20
2019,04,27,07,00,5.20
2019,04,27,07,01,5.20
2019,04,27,07,02,5.30
2019,04,27,07,03,5.30
2019,04,27,07,04,5.40
2019,04,27,07,05,5.40
2019,04,27,07,06,5.40
2019,04,27,07,07,5.40
2019,04,27,07,08,5.50
2019,04,27,07,09,5.50
2019,04,27,07,10,5.60
2019,04,27,07,11,5.60
2019,04,27,07,12,5.60
2019,04,27,07,13,5.70
2019,04,27,07,14,5.70
2019,04,27,07,15,5.70
2019,04,27,07,16,5.80
2019,04,27,07,17,5.80
2019,04,27,07,18,5.80
2019,04,27,07,19,5.90
2019,04,27,07,20,5.90
2019,04,27,07,21,5.90
2019,04,27,07,22,6.00
2019,04,27,07,23,6.00
2019,04,27,07,24,6.10
2019,04,27,07,25,6.10
2019,04,27,07,26,6.10
2019,04,27,07,27,6.20
2019,04,27,07,28,6.20
2019,04,27,07,29,6.20
2019,04,27,07,30,6.30
2019,04,27,07,31,6.30
2019,04,27,07,32,6.30
2019,04,27,07,33,6.30
2019,04,27,07,34,6.30
2019,04,27,07,35,6.40
2019,04,27,07,36,6.40
2019,04,27,07,37,6.40
2019,04,27,07,38,6.50
2019,04,27,07,39,6.50
2019,04,27,07,40,6.50
2019,04,27,07,41,6.60
2019,04,27,07,42,6.60
2019,04,27,07,43,6.60
2019,04,27,07,44,6.70
2019,04,27,07,45,6.70
2019,04,27,07,46,6.70
2019,04,27,07,47,6.70
2019,04,27,07,48,6.70
2019,04,27,07,49,6.70
2019,04,27,07,50,6.70
2019,04,27,07,51,6.70
2019,04,27,07,52,6.80
2019,04,27,07,53,6.80
2019,04,27,07,54,6.80
2019,04,27,07,55,6.80
2019,04,27,07,56,6.90
2019,04,27,07,57,6.90
2019,04,27,07,58,6.90
2019,04,27,07,59,7.00
2019,04,27,08,00,7.00
2019,04,27,08,01,7.00
2019,04,27,08,02,7.10
2019,04,27,08,03,7.10
2019,04,27,08,04,7.10
2019,04,27,08,05,7.20
2019,04,27,08,06,7.20
2019,04,27,08,07,7.20
2019,04,27,08,08,7.20
2019,04,27,08,09,7.20
2019,04,27,08,10,7.10
2019,04,27,08,11,7.20
2019,04,27,08,12,7.20
2019,04,27,08,13,7.20
2019,04,27,08,14,7.20
2019,04,27,08,15,7.20
2019,04,27,08,16,7.20
2019,04,27,08,17,7.20
2019,04,27,08,18,7.20
2019,04,27,08,19,7.20
2019,04,27,08,20,7.20
2019,04,27,08,21,7.20
2019,04,27,08,22,7.20
2019,04,27,08,23,7.20
2019,04,27,08,24,7.20
2019,04,27,08,25,7.20
2019,04,27,08,26,7.20
2019,04,27,08,27,7.30
2019,04,27,08,28,7.30
2019,04,27,08,29,7.30
2019,04,27,08,30,7.30
2019,04,27,08,31,7.30
2019,04,27,08,32,7.30
2019,04,27,08,33,7.30
2019,04,27,08,34,7.40
2019,04,27,08,35,7.40
2019,04,27,08,36,7.40
2019,04,27,08,37,7.40
2019,04,27,08,38,7.40
2019,04,27,08,39,7.50
2019,04,27,08,40,7.50
2019,04,27,08,41,7.60
2019,04,27,08,42,7.60
2019,04,27,08,43,7.70
2019,04,27,08,44,7.80
2019,04,27,08,45,7.80
2019,04,27,08,46,7.80
2019,04,27,08,47,7.80
2019,04,27,08,48,7.80
2019,04,27,08,49,7.80
2019,04,27,08,50,7.80
2019,04,27,08,51,7.90
2019,04,27,08,52,7.90
2019,04,27,08,53,7.90
2019,04,27,08,54,8.00
2019,04,27,08,55,8.00
2019,04,27,08,56,8.00
2019,04,27,08,57,8.10
2019,04,27,08,58,8.10
2019,04,27,08,59,8.20
2019,04,27,09,00,8.20
2019,04,27,09,01,8.30
2019,04,27,09,02,8.40
2019,04,27,09,03,8.50
2019,04,27,09,04,8.60
2019,04,27,09,05,8.70
2019,04,27,09,06,8.80
2019,04,27,09,07,8.80
2019,04,27,09,08,8.90
2019,04,27,09,09,8.90
2019,04,27,09,10,9.00
2019,04,27,09,11,9.10
2019,04,27,09,12,9.10
2019,04,27,09,13,9.20
2019,04,27,09,14,9.20
2019,04,27,09,15,9.20
2019,04,27,09,16,9.20
2019,04,27,09,17,9.20
2019,04,27,09,18,9.20
2019,04,27,09,19,9.20
2019,04,27,09,20,9.10
2019,04,27,09,21,9.10
2019,04,27,09,22,9.10
2019,04,27,09,23,9.10
2019,04,27,09,24,9.10
2019,04,27,09,25,9.10
2019,04,27,09,26,9.10
2019,04,27,09,27,9.20
2019,04,27,09,28,9.20
2019,04,27,09,29,9.20
2019,04,27,09,30,9.20
2019,04,27,09,31,9.30
2019,04,27,09,32,9.30
2019,04,27,09,33,9.30
2019,04,27,09,34,9.30
2019,04,27,09,35,9.30
2019,04,27,09,36,9.30
2019,04,27,09,37,9.40
2019,04,27,09,38,9.40
2019,04,27,09,39,9.40
2019,04,27,09,40,9.40
2019,04,27,09,41,9.50
2019,04,27,09,42,9.50
2019,04,27,09,43,9.60
2019,04,27,09,44,9.60
2019,04,27,09,45,9.70
2019,04,27,09,46,9.60
2019,04,27,09,47,9.70
2019,04,27,09,48,9.70
2019,04,27,09,49,9.80
2019,04,27,09,50,9.90
2019,04,27,09,51,10.00
2019,04,27,09,52,10.20
2019,04,27,09,53,10.20
2019,04,27,09,54,10.30
2019,04,27,09,55,10.40
2019,04,27,09,56,10.30
2019,04,27,09,57,10.30
2019,04,27,09,58,10.30
2019,04,27,09,59,10.20
2019,04,27,10,00,10.10
2019,04,27,10,01,10.10
2019,04,27,10,02,10.10
2019,04,27,10,03,10.10
2019,04,27,10,04,10.10
2019,04,27,10,05,10.10
2019,04,27,10,06,10.20
2019,04,27,10,07,10.20
2019,04,27,10,08,10.20
2019,04,27,10,09,10.20
2019,04,27,10,10,10.30
2019,04,27,10,11,10.40
2019,04,27,10,12,10.50
2019,04,27,10,13,10.60
2019,04,27,10,14,10.60
2019,04,27,10,15,10.60
2019,04,27,10,16,10.70
2019,04,27,10,17,10.70
2019,04,27,10,18,10.60
2019,04,27,10,19,10.50
2019,04,27,10,20,10.50
2019,04,27,10,21,10.40
2019,04,27,10,22,10.50
2019,04,27,10,23,10.50
2019,04,27,10,24,10.50
2019,04,27,10,25,10.50
2019,04,27,10,26,10.50
2019,04,27,10,27,10.50
2019,04,27,10,28,10.50
2019,04,27,10,29,10.50
2019,04,27,10,30,10.50
2019,04,27,10,31,10.50
2019,04,27,10,32,10.50
2019,04,27,10,33,10.60
2019,04,27,10,34,10.60
2019,04,27,10,35,10.60
2019,04,27,10,36,10.60
2019,04,27,10,37,10.60
2019,04,27,10,38,10.60
2019,04,27,10,39,10.60
2019,04,27,10,40,10.60
2019,04,27,10,41,10.70
2019,04,27,10,42,10.80
2019,04,27,10,43,10.90
2019,04,27,10,44,11.00
2019,04,27,10,45,11.10
2019,04,27,10,46,11.20
2019,04,27,10,47,11.10
2019,04,27,10,48,11.10
2019,04,27,10,49,11.10
2019,04,27,10,50,11.10
2019,04,27,10,51,11.00
2019,04,27,10,52,11.00
2019,04,27,10,53,10.90
2019,04,27,10,54,10.90
2019,04,27,10,55,11.00
2019,04,27,10,56,11.10
2019,04,27,10,57,11.20
2019,04,27,10,58,11.20
2019,04,27,10,59,11.10
2019,04,27,11,00,11.10
2019,04,27,11,01,11.20
2019,04,27,11,02,11.20
2019,04,27,11,03,11.20
2019,04,27,11,04,11.20
2019,04,27,11,05,11.20
2019,04,27,11,06,11.20
2019,04,27,11,07,11.30
2019,04,27,11,08,11.30
2019,04,27,11,09,11.30
2019,04,27,11,10,11.30
2019,04,27,11,11,11.30
2019,04,27,11,12,11.40
2019,04,27,11,13,11.40
2019,04,27,11,14,11.40
2019,04,27,11,15,11.50
2019,04,27,11,16,11.50
2019,04,27,11,17,11.60
2019,04,27,11,18,11.60
2019,04,27,11,19,11.70
2019,04,27,11,20,11.70
2019,04,27,11,21,11.80
2019,04,27,11,22,11.90
2019,04,27,11,23,11.90
2019,04,27,11,24,11.80
2019,04,27,11,25,11.80
2019,04,27,11,26,11.80
2019,04,27,11,27,11.80
2019,04,27,11,28,11.80
2019,04,27,11,29,11.90
2019,04,27,11,30,11.90
2019,04,27,11,31,11.90
2019,04,27,11,32,12.00
2019,04,27,11,33,12.00
2019,04,27,11,34,12.10
2019,04,27,11,35,12.10
2019,04,27,11,36,12.20
2019,04,27,11,37,12.20
2019,04,27,11,38,12.20
2019,04,27,11,39,12.20
2019,04,27,11,40,12.20
2019,04,27,11,41,12.10
2019,04,27,11,42,12.10
2019,04,27,11,43,12.00
2019,04,27,11,44,12.00
2019,04,27,11,45,12.10
2019,04,27,11,46,12.20
2019,04,27,11,47,12.30
2019,04,27,11,48,12.40
2019,04,27,11,49,12.40
2019,04,27,11,50,12.30
2019,04,27,11,51,12.30
2019,04,27,11,52,12.30
2019,04,27,11,53,12.30
2019,04,27,11,54,12.40
2019,04,27,11,55,12.50
2019,04,27,11,56,12.50
2019,04,27,11,57,12.50
2019,04,27,11,58,12.40
2019,04,27,11,59,12.30
2019,04,27,12,00,12.30
2019,04,27,12,01,12.20
2019,04,27,12,02,12.20
2019,04,27,12,03,12.10
2019,04,27,12,04,12.10
2019,04,27,12,05,12.00
2019,04,27,12,06,11.90
2019,04,27,12,07,11.80
2019,04,27,12,08,11.80
2019,04,27,12,09,11.70
2019,04,27,12,10,11.70
2019,04,27,12,11,11.70
2019,04,27,12,12,11.80
2019,04,27,12,13,11.80
2019,04,27,12,14,11.80
2019,04,27,12,15,11.80
2019,04,27,12,16,11.80
2019,04,27,12,17,11.80
2019,04,27,12,18,11.80
2019,04,27,12,19,11.80
2019,04,27,12,20,11.80
2019,04,27,12,21,11.80
2019,04,27,12,22,11.90
2019,04,27,12,23,11.90
2019,04,27,12,24,12.00
2019,04,27,12,25,12.00
2019,04,27,12,26,12.10
2019,04,27,12,27,12.10
2019,04,27,12,28,12.20
2019,04,27,12,29,12.40
2019,04,27,12,30,12.50
2019,04,27,12,31,12.70
2019,04,27,12,32,12.80
2019,04,27,12,33,12.70
2019,04,27,12,34,12.70
2019,04,27,12,35,12.60
2019,04,27,12,36,12.60
2019,04,27,12,37,12.50
2019,04,27,12,38,12.40
2019,04,27,12,39,12.40
2019,04,27,12,40,12.30
2019,04,27,12,41,12.20
2019,04,27,12,42,12.10
2019,04,27,12,43,12.00
2019,04,27,12,44,11.90
2019,04,27,12,45,11.80
2019,04,27,12,46,11.80
2019,04,27,12,47,11.80
2019,04,27,12,48,11.70
2019,04,27,12,49,11.70
2019,04,27,12,50,11.70
2019,04,27,12,51,11.70
2019,04,27,12,52,11.70
2019,04,27,12,53,11.70
2019,04,27,12,54,11.60
2019,04,27,12,55,11.60
2019,04,27,12,56,11.70
2019,04,27,12,57,11.80
2019,04,27,12,58,11.80
2019,04,27,12,59,11.80
2019,04,27,13,00,11.80
2019,04,27,13,01,11.70
2019,04,27,13,02,11.70
2019,04,27,13,03,11.60
2019,04,27,13,04,11.50
2019,04,27,13,05,11.50
2019,04,27,13,06,11.40
2019,04,27,13,07,11.40
2019,04,27,13,08,11.40
2019,04,27,13,09,11.40
2019,04,27,13,10,11.40
2019,04,27,13,11,11.50
2019,04,27,13,12,11.60
2019,04,27,13,13,11.70
2019,04,27,13,14,11.80
2019,04,27,13,15,12.00
2019,04,27,13,16,12.10
2019,04,27,13,17,12.20
2019,04,27,13,18,12.30
2019,04,27,13,19,12.40
2019,04,27,13,20,12.50
2019,04,27,13,21,12.50
2019,04,27,13,22,12.50
2019,04,27,13,23,12.60
2019,04,27,13,24,12.70
2019,04,27,13,25,12.80
2019,04,27,13,26,12.90
2019,04,27,13,27,12.90
2019,04,27,13,28,12.80
2019,04,27,13,29,12.80
2019,04,27,13,30,12.60
2019,04,27,13,31,12.50
2019,04,27,13,32,12.40
2019,04,27,13,33,12.40
2019,04,27,13,34,12.40
2019,04,27,13,35,12.30
2019,04,27,13,36,12.30
2019,04,27,13,37,12.20
2019,04,27,13,38,12.10
2019,04,27,13,39,12.10
2019,04,27,13,40,12.10
2019,04,27,13,41,12.00
2019,04,27,13,42,11.90
2019,04,27,13,43,11.90
2019,04,27,13,44,12.00
2019,04,27,13,45,12.00
2019,04,27,13,46,12.10
2019,04,27,13,47,12.20
2019,04,27,13,48,12.20
2019,04,27,13,49,12.40
2019,04,27,13,50,12.50
2019,04,27,13,51,12.60
2019,04,27,13,52,12.70
2019,04,27,13,53,12.80
2019,04,27,13,54,12.80
2019,04,27,13,55,12.70
2019,04,27,13,56,12.70
2019,04,27,13,57,12.80
2019,04,27,13,58,12.80
2019,04,27,13,59,12.80
2019,04,27,14,00,12.80
2019,04,27,14,01,12.80
2019,04,27,14,02,12.80
2019,04,27,14,03,12.90
2019,04,27,14,04,12.90
2019,04,27,14,05,12.90
2019,04,27,14,06,12.90
2019,04,27,14,07,12.90
2019,04,27,14,08,12.90
2019,04,27,14,09,13.00
2019,04,27,14,10,13.00
2019,04,27,14,11,13.00
2019,04,27,14,12,13.00
2019,04,27,14,13,13.00
2019,04,27,14,14,13.00
2019,04,27,14,15,13.00
2019,04,27,14,16,13.00
2019,04,27,14,17,13.10
2019,04,27,14,18,13.10
2019,04,27,14,19,13.20
2019,04,27,14,20,13.10
2019,04,27,14,21,13.10
2019,04,27,14,22,13.20
2019,04,27,14,23,13.20
2019,04,27,14,24,13.20
2019,04,27,14,25,13.30
2019,04,27,14,26,13.40
2019,04,27,14,27,13.30
2019,04,27,14,28,13.20
2019,04,27,14,29,13.20
2019,04,27,14,30,13.10
2019,04,27,14,31,13.10
2019,04,27,14,32,13.00
2019,04,27,14,33,12.90
2019,04,27,14,34,12.90
2019,04,27,14,35,12.90
2019,04,27,14,36,13.00
2019,04,27,14,37,13.10
2019,04,27,14,38,13.20
2019,04,27,14,39,13.30
2019,04,27,14,40,13.20
2019,04,27,14,41,13.20
2019,04,27,14,42,13.10
2019,04,27,14,43,13.10
2019,04,27,14,44,13.20
2019,04,27,14,45,13.20
2019,04,27,14,46,13.20
2019,04,27,14,47,13.20
2019,04,27,14,48,13.10
2019,04,27,14,49,13.00
2019,04,27,14,50,12.80
2019,04,27,14,51,12.80
2019,04,27,14,52,12.70
2019,04,27,14,53,12.70
2019,04,27,14,54,12.60
2019,04,27,14,55,12.60
2019,04,27,14,56,12.60
2019,04,27,14,57,12.60
2019,04,27,14,58,12.60
2019,04,27,14,59,12.70
2019,04,27,15,00,12.80
2019,04,27,15,01,12.90
2019,04,27,15,02,12.90
2019,04,27,15,03,12.90
2019,04,27,15,04,12.90
2019,04,27,15,05,13.00
2019,04,27,15,06,13.10
2019,04,27,15,07,13.10
2019,04,27,15,08,13.10
2019,04,27,15,09,13.00
2019,04,27,15,10,13.00
2019,04,27,15,11,13.00
2019,04,27,15,12,13.20
2019,04,27,15,13,13.20
2019,04,27,15,14,13.20
2019,04,27,15,15,13.30
2019,04,27,15,16,13.30
2019,04,27,15,17,13.20
2019,04,27,15,18,13.20
2019,04,27,15,19,13.20
2019,04,27,15,20,13.30
2019,04,27,15,21,13.30
2019,04,27,15,22,13.40
2019,04,27,15,23,13.30
2019,04,27,15,24,13.30
2019,04,27,15,25,13.30
2019,04,27,15,26,13.30
2019,04,27,15,27,13.30
2019,04,27,15,28,13.20
2019,04,27,15,29,13.10
2019,04,27,15,30,13.00
2019,04,27,15,31,12.90
2019,04,27,15,32,12.90
2019,04,27,15,33,12.90
2019,04,27,15,34,12.80
2019,04,27,15,35,12.80
2019,04,27,15,36,12.80
2019,04,27,15,37,12.70
2019,04,27,15,38,12.70
2019,04,27,15,39,12.70
2019,04,27,15,40,12.70
2019,04,27,15,41,12.70
2019,04,27,15,42,12.60
2019,04,27,15,43,12.70
2019,04,27,15,44,12.70
2019,04,27,15,45,12.80
2019,04,27,15,46,12.80
2019,04,27,15,47,12.90
2019,04,27,15,48,12.80
2019,04,27,15,49,12.80
2019,04,27,15,50,12.90
2019,04,27,15,51,13.00
2019,04,27,15,52,13.00
2019,04,27,15,53,12.90
2019,04,27,15,54,12.90
2019,04,27,15,55,12.90
2019,04,27,15,56,12.90
2019,04,27,15,57,12.80
2019,04,27,15,58,12.80
2019,04,27,15,59,12.80
2019,04,27,16,00,12.80
2019,04,27,16,01,12.80
2019,04,27,16,02,12.80
2019,04,27,16,03,12.80
2019,04,27,16,04,12.80
2019,04,27,16,05,12.70
2019,04,27,16,06,12.70
2019,04,27,16,07,12.70
2019,04,27,16,08,12.70
2019,04,27,16,09,12.70
2019,04,27,16,10,12.80
2019,04,27,16,11,12.80
2019,04,27,16,12,12.80
2019,04,27,16,13,12.80
2019,04,27,16,14,12.80
2019,04,27,16,15,12.70
2019,04,27,16,16,12.70
2019,04,27,16,17,12.80
2019,04,27,16,18,12.80
2019,04,27,16,19,12.80
2019,04,27,16,20,12.80
2019,04,27,16,21,12.80
2019,04,27,16,22,12.80
2019,04,27,16,23,12.80
2019,04,27,16,24,12.80
2019,04,27,16,25,12.90
2019,04,27,16,26,12.90
2019,04,27,16,27,12.90
2019,04,27,16,28,13.00
2019,04,27,16,29,13.00
2019,04,27,16,30,13.10
2019,04,27,16,31,13.10
2019,04,27,16,32,13.10
2019,04,27,16,33,13.20
2019,04,27,16,34,13.10
2019,04,27,16,35,13.10
2019,04,27,16,36,13.10
2019,04,27,16,37,13.00
2019,04,27,16,38,13.00
2019,04,27,16,39,12.90
2019,04,27,16,40,12.90
2019,04,27,16,41,12.90
2019,04,27,16,42,12.90
2019,04,27,16,43,12.90
2019,04,27,16,44,12.90
2019,04,27,16,45,12.90
2019,04,27,16,46,12.90
2019,04,27,16,47,12.90
2019,04,27,16,48,13.00
2019,04,27,16,49,13.00
2019,04,27,16,50,13.00
2019,04,27,16,51,13.00
2019,04,27,16,52,13.10
2019,04,27,16,53,13.10
2019,04,27,16,54,13.10
2019,04,27,16,55,13.20
2019,04,27,16,56,13.20
2019,04,27,16,57,13.20
2019,04,27,16,58,13.20
2019,04,27,16,59,13.20
2019,04,27,17,00,13.30
2019,04,27,17,01,13.30
2019,04,27,17,02,13.30
2019,04,27,17,03,13.30
2019,04,27,17,04,13.40
2019,04,27,17,05,13.40
2019,04,27,17,06,13.50
2019,04,27,17,07,13.50
2019,04,27,17,08,13.50
2019,04,27,17,09,13.50
2019,04,27,17,10,13.40
2019,04,27,17,11,13.40
2019,04,27,17,12,13.40
2019,04,27,17,13,13.40
2019,04,27,17,14,13.30
2019,04,27,17,15,13.30
2019,04,27,17,16,13.30
2019,04,27,17,17,13.30
2019,04,27,17,18,13.30
2019,04,27,17,19,13.20
2019,04,27,17,20,13.20
2019,04,27,17,21,13.20
2019,04,27,17,22,13.20
2019,04,27,17,23,13.20
2019,04,27,17,24,13.20
2019,04,27,17,25,13.20
2019,04,27,17,26,13.20
2019,04,27,17,27,13.20
2019,04,27,17,28,13.20
2019,04,27,17,29,13.20
2019,04,27,17,30,13.20
2019,04,27,17,31,13.20
2019,04,27,17,32,13.20
2019,04,27,17,33,13.20
2019,04,27,17,34,13.30
2019,04,27,17,35,13.30
2019,04,27,17,36,13.30
2019,04,27,17,37,13.30
2019,04,27,17,38,13.30
2019,04,27,17,39,13.30
2019,04,27,17,40,13.30
2019,04,27,17,41,13.30
2019,04,27,17,42,13.30
2019,04,27,17,43,13.30
2019,04,27,17,44,13.30
2019,04,27,17,45,13.30